Regional Weather Roundup
Issued by NWS Upton, NY

Current Version | Previous Version | Text Only | Print | Product List | Glossary Off
Versions: 1 2 3 4 5 6 7 8 9 10 11 12 13 14 15 16 17 18 19 20 21 22 23 24 25 26 27 28 29 30 31 32 33 34 35 36 37 38 39 40 41 42 43 44 45 46 47 48 49 50
000 ASUS41 KOKX 051705 RWROKX REGIONAL WEATHER ROUNDUP NATIONAL WEATHER SERVICE NEW YORK NY 1200 PM EST THU MAR 05 2015 NOTE: "FAIR" INDICATES FEW OR NO CLOUDS BELOW 12,000 FEET WITH NO SIGNIFICANT WEATHER AND/OR OBSTRUCTIONS TO VISIBILITY. NYZ071-072-176-178-NJZ106-104-051800- NEW YORK CITY METRO AREA CITY SKY/WX TMP DP RH WIND PRES REMARKS CENTRAL PARK SNOW 23 21 92 W9G18 30.18R VSB 1/4 WCI 13 LAGUARDIA APRT SNOW 26 23 88 NW18 30.15R VSB 1/4 WCI 13 KENNEDY INTL LGT SNOW 27 22 81 N12 30.16R VSB 3/4 WCI 17 NEWARK/LIBERTY SNOW 25 22 88 N12 30.18R VSB 1/2 WCI 14 BRNX BOT. GARD N/A N/A N/A N/A N5 30.18R TETERBORO LGT SNOW 23 19 86 NW13G20 30.17R VSB 3/4 WCI 11 $$ NYZ177-179-078>081-051800- LONG ISLAND NEW YORK CITY SKY/WX TMP DP RH WIND PRES REMARKS FARMINGDALE LGT SNOW 25 21 85 N12 30.14R VSB 1 WCI 14 ISLIP LGT SNOW 25 21 85 N9 30.11R VSB 3/4 WCI 15 SHIRLEY SNOW 25 21 85 N8 30.13R VSB 1/2 WCI 16 WESTHAMPTON SNOW 24 20 84 N15G24 30.12S VSB 1/2 WCI 11 MONTAUK POINT N/A 27 24 89 NW13 30.08F WCI 16 $$ NYZ052-065-067-051800- HUDSON VALLEY CITY SKY/WX TMP DP RH WIND PRES REMARKS WHITE PLAINS SNOW 22 18 85 N14 30.11R VSB 1/4 WCI 9 NEWBURGH CLOUDY 23 10 58 NW12 30.13R WCI 12 MONTGOMERY CLOUDY 25 3 38 NW9G17 30.13R WCI 15 POUGHKEEPSIE CLOUDY 26 4 38 N9 30.14R WCI 17 ALBANY CLOUDY 21 5 50 W17 30.18R WCI 7 $$ NJZ001-105-106-008-010-013-015-019>022-104-051800- NEW JERSEY CITY SKY/WX TMP DP RH WIND PRES REMARKS NEWARK/LIBERTY SNOW 25 22 88 N12 30.18R VSB 1/2 WCI 14 TETERBORO LGT SNOW 23 19 86 NW13G20 30.17R VSB 3/4 WCI 11 CALDWELL LGT SNOW 22 17 81 N6 30.18R VSB 3/4 WCI 14 MORRISTOWN LGT SNOW 23 19 86 N8G15 30.18R VSB 3/4 WCI 14 SOMERVILLE LGT SNOW 24 19 81 N7 30.18R VSB 3/4 WCI 16 SUSSEX CLOUDY 23 5 46 VRB6 30.14R WCI 16 ANDOVER N/A 21 15 78 VRB3 30.15R TRENTON SNOW 25 22 88 N14G30 30.16R VSB 1/4 WCI 13 MILLVILLE LGT SNOW 31 32 100 N16G23 30.15R VSB 3/4 WCI 20 ATLANTIC CITY SNOW 31 29 92 N10 30.14R VSB 1/4 WCI 22 WRIGHTSTOWN BLWGSNOW 28 26 96 N13 30.14R VSB 3/4 WCI 17 TOMS RIVER CLOUDY 30 27 86 N10G18 30.16R VSB 1 WCI 21 BELMAR CLOUDY 27 21 80 N12 30.15R VSB 1/2 WCI 16 $$ PAZ047>061-062-071-051800- EASTERN PENNSYLVANIA CITY SKY/WX TMP DP RH WIND PRES REMARKS PHILADELPHIA SNOW 28 26 92 N10 30.20R VSB 1/2 WCI 19 ALLENTOWN LGT SNOW 21 16 79 W6 30.20R VSB 3/4 WCI 14 SCRANTON CLOUDY 18 1 47 N15 30.17R WCI 4 $$ CTZ002-004>006-009-010-012-RIZ004-006-007-MAZ004-011-015-051800- SOUTHERN NEW ENGLAND IN CT CITY SKY/WX TMP DP RH WIND PRES REMARKS BRADLEY INTL CLOUDY 27 3 35 NW12 30.07F WCI 17 HARTFORD CLOUDY 27 4 37 NW9G21 30.10S WCI 18 DANBURY LGT SNOW 20 14 77 SE3 30.12S WTRBRY/OXFORD CLOUDY 21 9 58 N12G18 30.08R WCI 9 BRIDGEPORT LGT SNOW 23 20 88 NW9 30.15R FOG WCI 13 MERIDEN CLOUDY 25 11 55 NW12G21 30.10F WCI 14 NEW HAVEN LGT SNOW 23 18 81 N9 30.12S WCI 13 CHESTER SNOW 25 21 86 N7 30.07F VSB 1/2 WCI 17 GROTON LGT SNOW 25 23 92 N7 30.07F VSB 3/4 WCI 17 WILLIMANTIC LGT SNOW 25 20 81 VRB3 30.07S IN RI CITY SKY/WX TMP DP RH WIND PRES REMARKS PROVIDENCE LGT SNOW 27 23 85 NW7 30.06F VSB 3/4 WCI 19 BLOCK ISLAND CLOUDY 27 23 86 N12G17 30.04F VSB 3/4 WCI 16 WESTERLY LGT SNOW 26 23 88 N10 30.07F VSB 3/4 WCI 16 IN MA CITY SKY/WX TMP DP RH WIND PRES REMARKS BOSTON CLOUDY 30 6 36 NW12G22 30.05F WCI 20 WORCESTER CLOUDY 25 0 33 NW15 29.98F WCI 13 WESTFIELD CLOUDY 26 4 38 NW15 30.07F WCI 14 PROVINCETOWN CLOUDY 27 25 93 N13G18 30.06F WCI 16 NANTUCKET LGT SNOW 29 26 89 N14 30.04F VSB 3/4 WCI 18 $$ ANZ330-335-338-340-345-350-353-355-051800- COASTAL MARINE OBSERVATIONS STATION/POSITION TIME SKY/WX TEMP WIND PRES VSBY WAVE AIR SEA DIR/SP/G HT/PER (UTC) (F) (DEG/KT/KT) (MB) (MI) (FT/S) NY HARB ENTRANCE 1700 28 38 10/ 14/ 17 1020.4 3/ 4 4S FIRE IS 1700 32 N/A 3/ 9 20S FIRE ISLAND 1600 36 1019.3 4/ 4 23SW MTP 1700 N/A 5/ 4 HUDSON CANYON NOT AVBL EXECUTION ROCKS NOT AVBL WESTERN LI SOUND NOT AVBL CENTRAL LI SOUND NOT AVBL EASTERN LI SOUND NOT AVBL ROBBINS REEF 1700 23 330/ 17/ 21 1020.0 $$ >>>>>>>>>>>>>>>>>>>>>>>>>>>> KEY <<<<<<<<<<<<<<<<<<<<<<<<<<< > < > SKY/WX - SKY CONDITION/PRESENT WEATHER < > TMP - TEMPERATURE IN FAHRENHEIT < > DP - DEWPOINT IN FAHRENHEIT < > RH - RELATIVE HUMIDITY IN PERCENT < > WIND - DIRECTION AND SPEED IN MPH < > PRES - MEAN SEA LEVEL PRESSURE IN INCHES OF HG < > WCI - WIND CHILL INDEX < > VSB - VISIBILITY IN MILES < > HX - HEAT INDEX < > TC - TEMPERATURE IN CELSIUS < > VRB - VARIABLE WIND DIRECTION < > < >>>>>>>>>>>>>>>>>>>>>>>>>>>> KEY <<<<<<<<<<<<<<<<<<<<<<<<<<<

USA.gov is the U.S. government's official web portal to all federal, state and local government web resources and services.